IZ1VWE-3 Weather Reports


time (UTC)temp
C
wind
direction
speed
KPH
gust
KPH
rain 1hr
cm
rain 24hr
cm
rain mn
cm
humidity
%
barometer
mb
20260506163049 18 0.0 0.0 0.00 0.00 0.00 53 1006.9
20260506161049 19 0.0 0.0 0.00 0.00 0.00 53 1006.9
20260506155048 18 0.0 0.0 0.00 0.00 0.00 57 1006.7
20260506153048 20 0.0 0.0 0.00 0.00 0.00 51 1006.8
20260506151048 21 0.0 0.0 0.00 0.00 0.00 51 1006.7
20260506145047 19 0.0 0.0 0.00 0.00 0.00 55 1006.7
20260506143047 20 0.0 0.0 0.00 0.00 0.00 53 1006.6
20260506141047 20 0.0 0.0 0.00 0.00 0.00 50 1006.7
20260506135046 21 0.0 0.0 0.00 0.00 0.00 50 1006.9
20260506133046 21 0.0 0.0 0.00 0.00 0.00 47 1006.9
20260506131046 21 0.0 0.0 0.00 0.00 0.00 51 1006.9
20260506125045 22 0.0 0.0 0.00 0.00 0.00 49 1006.9
20260506123045 22 0.0 0.0 0.00 0.00 0.00 51 1006.7
20260506121045 22 0.0 0.0 0.00 0.00 0.00 55 1006.5
20260506115044 22 0.0 0.0 0.00 0.00 0.00 55 1006.4
20260506113044 21 0.0 0.0 0.00 0.00 0.00 55 1006.6
20260506111044 20 0.0 0.0 0.00 0.00 0.00 60 1006.4
20260506105043 21 0.0 0.0 0.00 0.00 0.00 57 1006.5
20260506103043 21 0.0 0.0 0.00 0.00 0.00 56 1006.5
20260506101043 22 0.0 0.0 0.00 0.00 0.00 55 1006.5
20260506095043 21 0.0 0.0 0.00 0.00 0.00 58 1006.5
20260506093042 22 0.0 0.0 0.00 0.00 0.00 60 1006.4
20260506091042 18 0.0 0.0 0.00 0.00 0.00 65 1004.0
20260506085042 19 0.0 0.0 0.00 0.00 0.00 66 1001.2
20260506083041 18 0.0 0.0 0.00 0.00 0.00 70 1010.5
20260506081041 20 0.0 0.0 0.00 0.00 0.00 86 1009.2
20260506073040 13 0.0 0.0 0.00 0.00 0.00 99
20260506071040 13 0.0 0.0 0.00 0.00 0.00 99
20260506061036 13 0.0 0.0 0.00 0.00 0.00 99 1004.2
20260506051035 12 0.0 0.0 0.00 0.00 0.00 99 1004.6
20260506045035 11 0.0 0.0 0.00 0.00 0.00 99 1004.5
20260506043035 11 0.0 0.0 0.00 0.00 0.00 99 1004.8
20260506041034 11 0.0 0.0 0.00 0.00 0.00 99 1005.3
20260506035034 12 0.0 0.0 0.00 0.00 0.00 88 1005.6
20260506033034 11 0.0 0.0 0.00 0.00 0.00 88 1005.3
20260506031033 10 0.0 0.0 0.00 0.00 0.00 83 1005.3
20260506025033 10 0.0 0.0 0.00 0.00 0.00 86 1005.9
20260506023033 10 0.0 0.0 0.00 0.00 0.00 86 1006.5
20260506021033 10 0.0 0.0 0.00 0.00 0.00 87 1006.6
20260506015032 10 0.0 0.0 0.00 0.00 0.00 82 1007.1
20260506013032 12 0.0 0.0 0.00 0.00 0.00 80 1006.8
20260506011032 13 0.0 0.0 0.00 0.00 0.00 81 1007.0
20260506005031 13 0.0 0.0 0.00 0.00 0.00 76 1007.1
20260506003031 13 0.0 0.0 0.00 0.00 0.00 77 1007.4
20260506001033 15 0.0 0.0 0.00 0.00 0.00 73 1007.3
20260505235030 16 0.0 0.0 0.00 0.00 0.00 69 1007.6
20260505233030 16 0.0 0.0 0.00 0.00 0.00 69 1008.2
20260505231030 16 0.0 0.0 0.00 0.00 0.00 69 1008.5
20260505225029 16 0.0 0.0 0.00 0.00 0.00 68 1008.6
20260505223029 15 0.0 0.0 0.00 0.00 0.00 70 1008.8
20260505221029 16 0.0 0.0 0.00 0.00 0.00 68 1009.0
20260505215028 17 0.0 0.0 0.00 0.00 0.00 66 1009.0
20260505213028 17 0.0 0.0 0.00 0.00 0.00 64 1009.2
20260505211028 17 0.0 0.0 0.00 0.00 0.00 64 1009.3
20260505205028 17 0.0 0.0 0.00 0.00 0.00 65 1009.5
20260505203027 16 0.0 0.0 0.00 0.00 0.00 64 1009.7
20260505201027 17 0.0 0.0 0.00 0.00 0.00 64 1009.6
20260505195027 17 0.0 0.0 0.00 0.00 0.00 64 1009.7
20260505193026 17 0.0 0.0 0.00 0.00 0.00 63 1009.6
20260505191026 17 0.0 0.0 0.00 0.00 0.00 64 1009.6
20260505185026 17 0.0 0.0 0.00 0.00 0.00 63 1009.3
20260505183025 17 0.0 0.0 0.00 0.00 0.00 64 1009.5
20260505181025 16 0.0 0.0 0.00 0.00 0.00 65 1009.5
20260505175025 17 0.0 0.0 0.00 0.00 0.00 62 1009.5
20260505173024 17 0.0 0.0 0.00 0.00 0.00 61 1009.3
20260505171024 17 0.0 0.0 0.00 0.00 0.00 61 1009.2
20260505165024 18 0.0 0.0 0.00 0.00 0.00 58 1009.4